Starlink 31310

operational
NORAD ID: 59092 Int'l Des: 2024-041 Owner: SPXS Country: US Constellation: starlink
LEOCIRCULAR

Über Starlink 31310

Beschreibung wird geladen...

Live-Position

3D-Globus wird geladen...

Nächste Überflüge

Höhenverlauf

Altitude vs Time

uPlot chart will show altitude changes over time

Zweizeiliger Elementsatz

1 59092U 24041U 25258.17374056 -.00000616 00000-0 -12877-4 0 9995
2 59092 43.0017 222.3509 0001053 273.6368 86.4363 15.27570563 87421
Epoch: 15. Sept. 2025 • Age: 9 hours

Aktueller Status

Höhe 483.6 km
Geschwindigkeit 7.63 km/s
Subsatellitenpunkt -5.48°S, 16.25°E
Startdatum 29. Feb. 2024
Alter 1.5 years
Typ internet

Technische Details

Klassifizierung Payload
Masse 730.00 kg
Trockenmasse 700.00 kg
Gesamtmasse 730.00 kg
Länge 0.30 m
Durchmesser 4.10 m
Spannweite 29.00 m
Form Box + pan
Hersteller SPXS
Bus-Typ Starlink V2M
Phasenstatus In Orbit
Besitzer/Staat SPXS/US

Große Konstellationen

Loading constellations...